Location: Huesca
(42.1318°N, 0.4078°W)
Time: 16:59:05
(UTC+02:00)

ITAMSAT 1 - Pass Details

Date: 26 April 2024
Orbit: 782 x 795 km, 98.8° (Epoch: 08 September)

Event Time Altitude Azimuth Distance (km) Brightness Sun altitude
Exits shadow 22:11:57 14° 155° (SSE) 2,079 9.3 -13.5°
Maximum altitude 22:16:25 71° 73° (ENE) 845 7.7 -14.2°
Drops below altitude 10° 22:21:34 10° 351° (N) 2,348 10.8 -14.9°
Sets 22:23:59 0° 349° (N) 3,306 11.6 -15.3°
